Location: ??
(34.7707°N, 135.6540°E)
Time: 20:59:42
(UTC+00:00)

Tiangong - Pass Details

Date: 30 September 2021
Orbit: 382 x 385 km, 41.5° (Epoch: 18 October)

Event Time Altitude Azimuth Distance (km) Brightness Sun altitude
Exits shadow 20:07:39 10° 304° (NW) 1,404 3.4 -9.9°
Reaches altitude 10° 20:07:41 10° 304° (NW) 1,397 3.4 -9.9°
Maximum altitude 20:10:16 23° 360° (N) 873 2.9 -9.4°
Drops below altitude 10° 20:12:51 10° 55° (NE) 1,396 4.9 -8.8°
Sets 20:15:11 0° 71° (ENE) 2,247 6.6 -8.4°
